Wind_Speed
18 17 17 16 15 15 14 13 11 10 10 9 8 8 8 9 9 10 10 11 13 14 15 15 15 15 15 16 17 18 19 20 21 22 23 23 24 24 24 25 25 25 25 25 24 24 23 23 23 24 25 26 25 24 22 21 20 21 21 22 21 21 21 21 22 22 22 21 20
19 18 18 17 16 16 15 13 12 11 10 10 9 8 8 9 10 10 11 12 14 15 15 15 16 15 15 16 17 18 19 20 21 21 22 22 22 22 23 23 23 24 24 24 24 24 24 23 23 23 24 25 25 24 23 21 20 20 21 22 22 21 21 21 21 21 21 21 20
20 19 18 17 16 15 14 13 12 12 11 10 9 9 9 9 10 11 12 13 15 16 16 16 16 16 16 16 17 18 19 19 20 20 21 21 21 21 21 21 22 22 22 23 23 23 23 23 23 23 24 24 25 24 23 21 20 20 20 21 21 21 21 20 20 20 21 21 21
20 19 17 16 15 14 14 13 12 12 12 11 11 10 9 9 9 10 11 13 15 16 16 16 16 16 16 16 17 18 18 18 19 19 19 20 20 20 20 20 20 21 21 21 21 21 22 22 22 22 23 23 23 23 23 21 20 19 19 19 20 20 20 19 19 19 20 20 20
19 18 17 16 15 14 13 13 13 12 12 12 11 11 10 9 8 9 11 13 15 16 16 16 16 16 17 17 17 17 18 18 18 18 18 19 18 18 19 19 19 19 19 19 20 20 20 20 20 21 21 21 22 22 22 21 20 19 19 19 19 19 19 18 17 18 18 19 19
19 18 17 16 16 15 14 13 13 12 12 11 10 10 9 7 7 8 11 13 14 15 15 16 16 16 17 17 17 17 17 17 17 17 17 18 18 18 18 18 18 18 19 18 18 18 18 18 18 19 19 19 19 20 20 20 20 20 19 19 19 19 18 18 17 16 16 17 17
20 19 18 17 17 16 15 15 14 13 12 11 10 10 9 8 8 9 11 13 14 14 15 16 16 16 16 16 17 17 17 17 16 17 17 17 17 17 18 18 18 18 18 18 18 18 17 17 17 17 17 17 17 18 18 19 19 19 20 19 19 19 18 18 17 16 16 16 16
21 20 19 18 18 17 16 15 14 13 13 12 12 11 10 9 9 10 11 13 13 14 15 15 16 16 16 16 16 16 16 16 16 16 16 16 17 17 17 18 18 18 18 18 18 18 17 17 17 16 16 16 16 17 17 17 17 18 19 19 19 19 19 18 18 17 17 16 15
22 21 20 19 18 17 16 15 14 14 14 13 13 12 11 10 10 11 11 12 13 14 14 15 15 15 15 15 15 15 15 15 15 15 15 16 16 16 17 17 17 18 18 18 18 18 17 17 16 16 16 15 15 16 16 16 16 17 17 17 17 17 18 18 18 18 18 18 17
22 21 20 19 18 17 16 15 14 14 14 14 13 12 11 11 11 11 11 12 12 13 14 14 14 14 15 15 15 14 14 14 14 14 14 15 15 15 16 16 16 16 17 17 17 17 17 17 16 15 15 14 14 14 14 14 15 15 15 15 15 16 16 16 17 17 18 19 18
23 22 20 19 18 17 16 15 14 14 14 14 13 12 12 11 11 10 10 11 11 12 13 13 13 14 14 14 14 13 13 13 13 13 14 14 14 15 15 15 15 15 16 16 16 16 16 16 15 15 14 13 13 12 12 13 13 13 13 13 14 14 14 15 15 16 16 17 17
23 22 21 20 18 17 16 16 15 14 14 14 13 13 12 11 10 9 8 9 10 11 12 12 12 13 13 13 13 12 12 12 12 13 13 14 14 14 15 15 15 15 15 15 16 16 16 15 15 14 13 13 12 12 12 12 12 12 12 12 12 12 12 13 13 14 15 15 15
23 22 21 19 18 17 16 16 15 15 14 14 13 13 12 11 10 8 8 8 9 10 10 11 11 12 12 12 12 11 11 11 12 12 13 13 13 14 14 15 15 15 15 16 16 16 15 15 15 14 13 13 12 12 11 12 12 12 12 11 11 11 11 11 11 12 13 14 14
22 22 21 19 18 16 16 16 15 15 14 14 13 13 12 12 10 9 8 8 8 8 9 9 10 10 11 11 11 10 10 10 11 11 12 12 13 13 14 15 15 15 15 16 16 16 16 15 15 14 13 13 12 12 11 12 12 12 12 12 12 12 11 11 11 11 11 12 12
22 22 20 19 17 16 16 15 15 14 14 14 13 13 12 11 10 9 8 8 7 7 7 7 8 8 9 9 9 9 9 9 10 10 11 12 12 13 14 14 15 15 15 15 16 16 16 15 15 14 13 12 12 12 12 12 12 12 12 12 12 12 12 12 11 11 11 11 11
22 21 20 19 18 17 16 15 14 14 13 13 13 12 11 11 10 9 8 8 7 7 7 7 6 7 7 7 8 8 8 9 9 10 11 11 12 12 13 14 14 14 15 15 16 16 16 15 15 14 13 12 12 12 12 12 12 12 12 12 12 12 12 12 12 12 12 12 12
22 21 20 19 18 17 16 15 14 14 13 13 13 12 11 10 9 8 8 7 7 7 7 6 6 6 6 6 7 8 8 8 9 10 10 11 11 12 12 13 13 14 14 15 15 16 16 16 15 14 13 13 12 12 13 13 13 12 12 12 12 12 12 12 13 13 13 14 13
22 21 20 19 18 18 17 16 15 14 13 13 13 12 11 9 8 8 7 7 7 7 6 6 6 5 5 6 7 7 8 8 9 10 10 11 11 12 12 13 13 13 14 14 15 15 16 16 15 15 14 14 13 13 13 13 13 13 13 13 12 12 12 12 13 13 14 14 14
22 21 20 19 19 18 17 16 15 14 14 13 13 12 10 9 8 7 6 6 6 6 6 6 5 5 5 6 7 7 8 8 9 9 10 11 11 12 12 12 13 13 13 14 14 15 16 16 16 15 15 15 15 15 15 15 15 14 14 14 13 13 13 13 13 13 14 14 14
22 21 20 19 19 18 17 16 15 14 14 13 12 11 10 8 7 6 6 5 5 6 6 5 4 4 5 6 7 7 8 8 9 9 10 10 11 12 12 12 12 13 13 14 14 15 16 17 16 16 16 16 16 16 17 17 16 16 16 15 15 15 15 15 15 14 14 14 14
22 21 20 19 19 18 17 16 15 14 13 13 12 11 9 8 7 6 5 5 5 5 5 4 3 3 4 5 6 7 7 8 8 9 9 10 11 12 12 12 13 13 13 14 15 16 16 17 17 17 17 17 18 18 18 18 18 18 18 18 17 17 17 16 16 15 15 15 14
22 21 20 19 18 17 16 15 15 14 13 12 11 10 9 8 7 5 5 4 4 4 5 4 3 3 3 4 5 6 7 7 8 8 9 10 11 11 12 12 13 13 14 14 15 16 16 17 17 17 18 18 19 19 20 20 20 20 20 20 20 20 19 18 18 17 16 15 15
22 21 20 19 18 17 16 15 14 13 12 11 10 10 8 7 6 5 4 4 4 4 4 4 4 3 3 4 5 6 6 7 7 7 8 9 10 11 11 12 12 13 13 14 14 15 15 16 16 16 17 18 19 19 20 20 21 21 21 21 21 21 21 20 19 18 17 17 16
22 21 20 19 18 16 15 14 14 13 12 11 10 9 8 7 6 5 4 4 4 4 4 4 4 3 3 4 4 5 6 5 5 6 7 8 10 11 11 11 12 12 12 13 13 13 13 13 14 15 16 17 18 19 20 20 21 21 21 22 22 22 22 22 21 20 19 18 17
22 21 19 18 17 16 15 14 13 12 11 11 10 9 8 7 6 5 4 4 4 4 4 4 3 3 3 3 4 4 4 4 4 5 6 8 9 10 11 11 11 11 12 12 12 12 11 12 12 13 15 16 17 18 19 20 21 21 21 22 22 23 23 23 23 22 20 19 18
21 20 19 18 17 15 14 14 13 12 11 10 9 8 7 6 5 5 4 4 4 4 4 3 3 2 3 3 2 2 2 3 4 5 6 7 8 10 10 10 10 11 11 12 11 11 11 11 12 13 14 15 17 18 19 20 21 22 22 22 23 23 23 24 24 24 23 22 21
21 20 18 17 16 15 14 13 12 12 11 10 9 8 7 6 5 5 5 5 4 4 3 2 2 1 2 1 1 1 2 3 3 4 5 6 8 9 10 10 10 10 11 11 11 11 11 12 12 13 14 15 16 18 19 20 22 22 23 23 24 24 24 24 25 25 25 24 23
20 19 18 16 15 15 14 13 12 11 10 9 9 8 7 6 5 5 5 5 4 4 4 3 2 1 1 1 1 2 3 3 3 4 5 6 8 9 9 10 10 11 11 11 11 12 12 13 14 14 14 15 16 17 19 20 22 23 23 24 24 25 25 25 26 26 26 26 26
19 18 17 16 15 14 13 13 12 11 10 9 8 7 7 6 5 5 5 5 4 5 5 4 4 3 3 3 3 3 3 3 4 4 6 7 8 9 10 11 11 12 12 12 12 13 13 14 15 15 15 15 16 17 19 20 21 22 23 24 24 25 25 25 26 26 27 27 27
19 18 17 16 15 14 13 12 11 10 10 9 8 7 6 6 6 6 5 5 5 5 5 5 5 5 5 4 4 4 4 4 4 5 7 8 9 10 11 12 13 14 14 14 14 14 15 15 16 16 16 16 17 18 19 20 21 22 22 23 24 24 24 25 25 26 26 27 27
18 17 16 16 15 14 12 11 11 10 9 8 7 7 6 6 6 6 5 5 5 5 5 6 7 6 6 5 5 5 5 5 6 7 8 9 10 11 12 13 14 15 16 16 16 15 16 16 17 17 17 17 18 19 19 20 21 22 22 23 23 24 24 24 24 25 25 26 26
17 17 16 15 14 13 12 11 10 9 9 8 7 7 6 6 6 5 6 6 7 7 7 7 7 7 6 6 6 6 6 6 7 8 9 10 11 12 13 14 15 16 17 17 16 16 16 17 17 18 18 18 19 19 20 21 21 22 22 23 23 23 23 23 24 24 24 25 25
17 16 15 15 14 13 11 10 10 9 8 8 7 7 6 6 6 6 6 7 8 8 8 8 8 7 7 7 7 7 7 7 8 9 9 10 11 12 14 15 16 17 17 17 17 16 17 17 18 18 19 19 19 20 21 22 22 22 23 23 23 23 23 23 23 23 24 24 24
16 16 15 14 14 13 12 11 10 9 9 8 7 7 6 6 6 6 7 8 8 8 8 8 8 8 8 7 7 7 7 8 9 9 10 11 12 13 15 16 17 17 18 17 17 17 17 18 18 19 19 20 20 21 22 22 23 23 23 23 23 23 23 23 23 23 23 24 24
16 16 15 15 14 13 12 11 10 9 9 8 7 6 6 6 6 7 7 8 8 8 8 8 8 8 7 7 7 7 8 9 9 10 11 12 13 14 15 17 18 18 18 18 17 17 18 18 19 19 20 20 21 21 22 23 23 23 24 24 24 23 23 23 23 23 23 23 23
17 17 16 15 14 13 12 11 10 9 9 8 7 6 6 6 6 7 7 8 8 8 8 8 8 7 7 8 8 8 9 10 10 11 12 13 14 15 16 17 18 19 19 19 18 18 19 19 19 20 20 21 22 22 23 23 23 23 23 24 24 24 24 23 23 23 23 23 23
17 17 16 16 14 13 12 11 10 9 8 8 7 6 6 6 6 7 7 8 8 8 8 8 8 8 8 8 8 9 10 10 11 12 13 14 15 16 17 18 19 20 20 20 20 19 19 19 20 20 21 21 22 23 23 23 23 23 23 24 24 24 24 23 23 23 22 22 22
17 16 16 15 14 13 12 11 10 9 8 7 6 6 6 6 7 7 7 8 8 8 8 7 7 8 8 8 9 10 10 11 12 13 14 15 15 16 17 19 20 21 21 21 21 20 20 20 20 20 21 21 22 23 23 23 23 23 23 24 24 24 24 23 23 22 22 22 21
16 16 16 15 14 13 12 11 10 9 8 7 7 6 6 7 7 7 7 7 7 7 7 7 8 8 8 9 10 11 12 12 13 14 15 16 16 17 18 19 21 22 22 22 21 21 20 21 21 21 21 21 22 22 23 23 23 23 24 24 24 24 24 23 22 22 22 22 21
16 15 15 14 13 12 11 10 9 8 8 7 7 7 7 7 7 7 7 6 6 6 7 8 8 9 9 10 11 12 13 14 14 15 16 17 17 18 19 20 21 22 23 23 22 22 21 21 21 21 21 21 22 22 23 23 23 23 24 24 24 23 23 23 22 22 22 22 22
16 15 14 13 12 12 11 10 9 8 8 7 7 7 7 6 6 6 6 6 6 7 7 8 9 10 10 11 12 13 14 15 16 16 17 18 18 19 20 21 22 23 23 23 23 22 22 21 21 21 21 21 21 22 22 23 23 23 24 23 23 23 23 23 22 22 22 22 22
Wind_Direction
141 141 141 140 140 137 134 130 127 125 122 118 114 110 106 103 99 96 93 91 88 86 84 81 77 72 67 65 65 64 63 61 60 58 57 55 54 52 51 50 49 48 47 47 47 46 44 41 39 37 36 39 42 44 45 43 41 39 39 39 40 40 38 35 32 31 32 33 32
142 141 141 140 138 136 132 129 127 125 123 120 117 113 108 102 99 96 94 93 91 90 88 86 82 78 74 71 70 69 67 65 64 62 61 59 57 55 54 52 50 49 47 47 46 45 44 41 39 36 34 35 38 41 43 43 42 40 38 37 39 39 39 36 32 31 31 32 32
142 140 137 135 133 130 128 126 126 125 124 122 120 116 110 102 97 94 93 92 93 92 91 88 86 83 81 78 76 74 72 69 68 66 64 62 60 58 57 55 53 51 49 48 47 46 44 43 40 38 35 33 35 37 39 40 40 39 37 35 36 38 38 36 33 31 31 32 31
139 136 134 132 131 129 127 127 126 125 123 121 119 115 109 101 96 93 93 93 93 92 92 91 90 88 86 84 81 79 76 74 71 69 67 65 63 61 59 57 56 54 52 50 48 47 46 44 43 40 37 35 34 34 36 37 38 38 36 34 34 35 36 36 33 31 30 31 31
138 136 136 135 134 133 131 130 127 124 120 117 114 110 105 100 97 97 96 95 94 93 94 94 93 92 91 89 86 82 79 76 74 71 69 67 65 62 61 59 57 56 54 52 50 48 47 46 46 44 42 38 36 35 35 35 35 35 34 33 32 32 33 33 33 31 29 30 30
139 139 140 140 139 137 135 133 128 123 119 115 113 110 108 106 107 105 102 99 98 98 98 97 96 96 94 92 89 85 82 78 75 72 70 68 66 63 61 60 58 56 55 53 51 50 48 48 48 47 45 42 40 38 36 34 33 33 32 31 30 29 29 30 30 29 28 28 28
144 143 143 143 142 140 136 133 128 125 123 121 119 117 117 117 117 113 108 105 104 102 102 101 100 98 96 93 90 86 83 79 75 72 70 67 65 63 61 59 58 56 55 53 52 51 50 49 49 48 46 45 42 40 38 36 33 31 30 28 27 27 26 25 26 25 25 25 26
147 146 145 143 141 138 134 131 129 128 128 127 124 123 123 124 122 117 113 110 107 106 105 103 102 100 97 93 90 86 82 78 74 70 67 65 62 60 59 57 56 55 54 53 52 51 51 51 51 50 47 45 43 41 40 38 36 33 30 27 26 25 24 22 22 21 21 21 22
147 146 144 142 138 135 131 129 129 130 129 127 126 126 127 127 125 120 116 112 111 109 108 106 103 100 96 92 88 84 80 75 72 68 64 61 59 57 55 54 54 53 52 51 51 51 51 52 52 52 50 47 43 41 40 39 36 34 31 29 27 25 24 23 20 19 17 17 17
146 144 143 139 136 133 130 129 130 130 128 126 126 127 128 127 124 120 116 115 115 113 109 106 103 99 95 90 86 82 77 73 69 65 62 59 56 54 52 52 51 51 49 48 48 48 49 51 51 51 50 48 44 40 38 36 33 31 29 28 27 26 26 25 23 20 17 14 13
145 144 142 139 136 133 132 131 131 131 130 128 128 129 129 126 121 118 117 118 116 113 109 106 102 98 94 89 85 80 76 71 66 63 60 58 55 52 50 50 50 49 47 46 44 45 46 47 47 46 46 44 40 35 31 28 26 24 22 22 22 23 24 25 24 22 19 16 13
144 143 141 139 137 136 136 136 135 135 134 132 133 133 130 126 122 120 121 121 117 113 108 104 99 96 92 89 85 80 75 69 65 61 59 56 54 51 50 49 49 48 46 44 42 42 42 42 42 40 39 37 33 28 22 18 15 12 11 10 11 12 14 16 18 19 18 17 15
144 142 140 139 139 140 141 141 140 140 139 138 138 137 135 132 131 132 132 128 119 112 107 101 97 93 91 88 84 80 74 69 63 60 57 55 53 50 49 48 48 47 46 43 41 40 40 39 39 37 34 31 27 23 17 12 7 4 1 359 359 358 359 0 2 5 8 10 12
145 142 141 140 141 143 145 144 143 143 142 142 142 142 141 140 141 141 140 133 124 115 108 101 95 91 88 85 83 79 74 68 63 59 56 54 52 49 47 47 46 46 45 42 40 39 38 37 36 34 31 28 24 20 15 10 5 1 357 354 352 350 349 347 347 348 351 355 358
145 143 142 142 144 146 146 144 144 144 145 145 145 145 144 144 144 144 142 137 130 123 116 107 97 90 85 82 81 78 73 68 64 59 55 52 50 48 46 45 44 44 43 40 38 37 36 35 34 32 29 25 20 17 12 8 4 1 357 354 350 348 345 343 341 340 339 340 342
146 144 144 145 146 146 145 143 144 146 147 147 147 146 146 145 145 144 141 138 134 129 122 115 106 96 88 82 80 77 74 69 64 58 54 50 48 46 44 43 42 42 40 38 35 33 32 33 32 30 26 22 17 13 9 5 3 0 358 355 352 348 345 342 339 336 334 333 332
147 146 147 147 148 146 144 143 145 148 150 150 150 148 148 146 145 142 140 138 134 130 125 120 114 107 98 89 82 78 75 70 63 57 52 48 45 44 42 41 41 39 38 34 31 29 28 28 28 26 23 18 14 9 5 2 0 359 357 355 352 349 345 341 338 335 332 330 327
149 148 149 149 148 147 146 147 149 152 153 153 153 151 150 147 145 143 141 137 134 131 126 121 114 109 102 94 85 79 74 69 62 56 51 46 43 41 40 39 39 37 35 31 27 24 23 23 23 21 18 13 9 5 2 360 358 357 355 353 350 347 344 340 337 333 330 328 325
150 150 150 151 150 150 150 152 154 156 157 157 155 153 151 149 148 146 143 138 134 131 127 122 115 106 97 92 85 79 73 67 60 54 49 44 40 38 37 37 35 34 31 27 23 20 19 19 18 15 11 7 4 1 358 357 355 354 352 349 347 344 341 338 336 333 329 327 324
151 151 152 152 153 153 154 156 158 160 160 158 156 153 151 151 151 149 146 141 137 133 128 123 114 105 95 88 83 77 70 64 57 50 45 40 36 34 33 32 31 29 26 22 18 16 15 15 13 10 6 2 358 356 354 353 352 350 348 346 343 341 339 337 334 332 329 327 324
152 152 153 154 155 156 157 159 161 161 160 158 156 154 153 153 154 153 151 147 143 138 133 126 119 107 95 87 80 75 68 61 54 46 39 34 32 30 28 26 25 22 20 16 14 12 11 11 8 4 0 357 354 352 351 349 348 346 344 342 340 338 337 335 333 332 330 327 325
152 153 154 155 156 158 159 161 162 161 160 158 156 155 155 156 157 158 157 157 154 149 143 142 143 131 105 89 78 70 63 57 49 40 32 28 26 24 22 20 18 16 14 11 10 8 7 6 3 359 355 352 350 348 347 346 344 342 341 339 337 336 335 334 333 331 329 327 325
153 153 154 156 158 159 160 161 161 160 159 158 157 156 157 158 160 162 167 171 170 161 155 152 152 141 117 93 76 64 56 50 42 32 25 21 20 19 17 15 13 11 8 7 6 5 3 -0 357 353 350 347 345 344 342 341 340 338 337 336 335 334 333 332 331 330 328 327 325
153 154 156 157 158 159 160 160 161 160 159 159 159 158 159 160 163 169 178 186 183 171 161 155 148 136 117 96 75 61 50 41 30 21 16 15 14 13 12 10 8 6 3 2 2 1 358 353 349 345 342 340 339 338 337 336 335 334 333 332 331 330 329 329 329 327 326 325 323
154 156 157 158 159 160 161 161 160 160 160 160 160 160 161 164 169 178 191 198 192 179 166 154 142 127 113 97 78 60 42 28 15 7 5 5 6 6 6 5 3 0 358 357 357 354 349 343 339 336 334 333 333 332 331 331 330 330 328 328 327 326 325 325 325 324 323 321 319
156 158 158 159 160 160 161 161 161 161 162 162 162 162 164 168 175 188 200 204 199 187 174 161 141 124 111 99 82 56 25 7 359 354 353 353 355 357 358 358 357 354 353 351 349 344 339 335 333 331 329 328 328 327 327 326 326 326 325 324 323 322 321 321 320 320 320 318 316
157 158 159 160 160 161 161 162 162 162 163 163 164 165 167 172 182 196 206 207 202 195 190 182 163 133 116 103 80 353 329 331 335 338 339 340 341 344 346 348 348 347 346 345 340 336 332 330 329 328 328 326 325 324 323 323 323 323 322 321 321 320 318 317 316 316 316 315 314
158 158 159 159 160 161 162 162 163 163 164 164 165 167 170 177 189 200 207 206 205 207 211 216 216 211 208 222 250 271 288 302 311 316 319 323 326 331 335 338 340 340 341 340 335 332 330 329 327 326 326 324 322 321 320 319 319 318 318 318 317 316 315 314 313 312 312 312 312
158 158 158 158 159 160 161 162 163 164 164 165 166 169 174 182 193 200 204 206 212 222 230 233 237 241 243 239 244 256 271 285 292 295 300 305 313 320 327 332 335 337 338 337 334 331 329 328 326 324 322 321 319 317 315 315 314 314 313 313 312 312 311 311 310 309 309 309 309
157 157 157 157 157 159 161 162 163 163 164 165 167 171 178 186 193 199 204 212 223 230 232 232 235 238 241 243 248 257 265 271 274 279 286 296 306 315 323 329 332 335 337 336 334 331 329 326 324 321 319 318 316 314 312 310 309 308 308 307 307 307 306 306 306 305 305 306 306
157 156 156 155 156 158 159 161 161 162 163 166 170 174 181 188 193 200 210 224 235 238 235 234 237 241 245 252 257 260 263 265 267 274 284 296 306 315 322 327 331 334 335 335 333 330 327 324 321 318 316 315 313 311 309 307 305 304 303 302 302 302 302 301 301 301 301 302 302
155 155 154 154 155 156 158 158 160 162 164 167 171 177 182 189 195 206 221 235 241 243 241 240 242 246 251 255 257 259 261 263 269 277 288 299 308 315 321 325 328 331 333 332 330 327 323 320 317 315 313 312 310 308 306 304 302 301 300 299 298 298 297 296 296 296 296 297 297
153 153 153 153 154 155 157 159 161 163 165 169 173 177 182 189 199 213 226 233 238 240 242 243 246 249 252 254 256 259 262 267 275 284 293 302 308 313 317 320 324 327 329 328 325 322 319 316 313 311 310 309 307 306 303 302 301 300 299 298 297 295 294 293 292 292 292 293 293
153 154 154 153 154 155 158 160 163 164 166 169 172 176 181 191 204 218 227 232 235 239 242 245 247 251 253 257 260 264 269 276 283 290 296 301 305 308 311 315 319 323 324 323 319 317 314 312 309 308 307 307 305 303 302 301 300 299 298 297 296 295 293 292 291 291 290 291 291
156 156 155 154 155 157 160 162 163 164 166 169 172 176 185 197 212 222 228 233 236 241 244 248 251 254 258 262 267 271 276 281 286 291 295 299 302 304 307 310 315 319 319 317 314 312 310 308 306 306 305 305 303 301 300 299 299 298 297 296 295 294 293 292 291 291 290 290 290
159 158 156 155 156 158 160 161 162 162 165 168 173 180 192 207 218 226 231 235 239 243 247 251 254 258 261 264 268 272 277 282 287 292 295 298 300 301 303 307 311 314 316 314 312 309 307 305 304 304 303 302 300 299 299 298 297 297 296 295 294 293 293 292 292 291 291 291 291
160 158 156 155 156 159 160 160 161 162 164 168 174 184 197 211 221 227 230 235 239 244 249 253 256 259 262 266 270 275 281 286 290 294 297 300 300 301 302 304 308 311 312 312 310 307 304 303 302 302 302 300 299 298 298 297 296 295 294 293 292 292 292 292 292 292 291 291 291
158 157 155 155 156 158 159 159 160 162 165 169 175 186 199 211 219 224 229 235 242 248 253 257 261 264 269 274 279 283 287 290 293 295 297 299 300 300 300 301 304 307 309 309 307 304 302 301 300 299 299 298 297 297 296 296 294 293 292 292 291 291 291 291 291 291 291 291 291
155 154 153 153 155 156 158 159 161 163 166 171 179 190 201 210 217 223 230 238 247 254 261 266 270 275 280 284 286 288 290 292 294 295 296 297 299 299 299 299 300 303 305 305 303 301 300 298 298 298 297 296 295 295 294 293 292 291 290 289 289 289 290 290 290 291 291 291 290
151 151 152 153 155 156 158 160 162 164 168 175 184 193 203 211 218 226 235 245 254 262 269 274 279 283 286 288 288 289 291 293 294 295 296 296 298 298 298 297 298 299 301 302 301 299 297 296 296 296 295 294 293 292 292 291 289 288 287 287 287 288 289 290 290 290 290 291 291
151 152 154 156 157 158 160 162 165 168 173 180 189 198 207 216 225 235 243 252 260 267 274 279 283 286 288 288 288 289 291 293 295 297 298 298 298 298 297 297 297 298 299 300 300 298 296 295 294 294 293 292 291 290 289 288 287 286 285 285 286 287 288 290 290 291 291 291 292
Height
780 781 782 783 784 785 786 787 788 788 789 790 790 791 791 791 791 791 790 790 790 790 789 789 789 790 790 790 790 789 789 789 789 788 788 788 788 788 787 787 786 786 785 785 784 784 783 783 783 782 782 781 781 780 780 780 780 779 779 778 778 778 777 777 777 777 776 776 776
779 781 782 783 784 785 786 787 788 788 789 790 790 791 791 791 791 791 791 791 790 790 790 790 790 790 790 790 790 790 790 790 790 789 789 789 789 788 788 788 788 787 786 786 785 785 784 784 783 783 783 782 782 781 781 781 781 780 780 779 779 778 778 778 778 777 777 776 776
779 780 781 783 783 785 786 787 787 788 789 790 790 791 791 792 792 792 791 791 791 791 790 790 790 790 791 791 791 791 790 790 790 790 790 790 790 789 789 789 788 788 788 787 787 786 786 785 785 784 784 783 783 782 782 782 782 781 781 780 780 779 779 778 778 778 778 777 777
779 780 781 782 783 784 785 786 787 788 789 789 790 791 791 792 792 792 792 792 791 791 791 791 791 791 791 791 791 791 791 791 791 791 791 791 791 790 790 790 789 789 789 788 788 788 787 787 786 785 785 785 784 783 783 783 783 783 782 782 781 781 780 780 779 779 778 778 778
778 779 781 782 783 784 785 786 787 788 788 789 790 791 792 792 792 793 792 792 792 791 791 791 791 791 791 792 792 792 792 792 792 792 791 791 791 791 791 791 790 790 790 789 789 788 788 788 787 787 786 786 785 785 785 784 784 783 783 783 782 782 782 781 781 780 780 779 779
778 779 780 781 783 783 784 785 786 787 788 789 790 791 792 792 793 793 793 793 792 792 792 792 792 792 792 792 792 792 792 792 792 792 792 792 792 792 791 791 791 791 790 790 790 789 789 788 788 788 787 787 787 786 786 785 785 784 784 784 783 783 783 782 782 782 781 780 780
777 778 779 781 782 783 784 785 786 787 788 789 790 791 792 792 793 793 793 793 793 792 792 792 792 792 792 792 792 792 792 792 792 792 792 792 792 792 792 792 791 791 791 791 790 790 790 789 789 788 788 788 787 787 787 786 786 785 785 784 784 784 783 783 783 782 782 782 781
776 778 779 780 782 783 784 785 786 787 788 788 789 790 791 792 793 793 793 793 793 793 792 792 792 792 792 792 792 792 792 793 793 793 792 792 792 792 792 792 792 792 791 791 791 790 790 790 789 789 789 788 788 788 788 787 787 786 785 785 785 784 784 784 783 783 783 782 782
776 777 779 780 781 783 783 784 785 786 787 788 789 790 791 792 793 793 793 793 793 793 793 793 792 792 792 792 792 792 793 793 793 793 793 792 792 792 792 792 792 792 792 791 791 791 790 790 790 789 789 789 789 789 788 788 788 787 787 786 785 785 785 784 784 783 783 783 782
775 777 778 780 781 782 783 784 785 786 787 788 789 790 791 792 793 793 793 793 793 793 793 793 793 792 792 792 792 793 793 793 793 793 793 792 792 792 792 792 792 792 792 791 791 791 791 790 790 790 790 790 789 789 789 789 788 788 788 787 787 786 785 785 784 784 783 783 782
774 776 778 779 781 782 783 784 785 786 787 788 789 790 791 792 793 793 794 794 794 793 793 793 793 792 792 792 792 793 793 793 793 793 793 792 792 792 792 792 792 792 791 791 791 791 791 790 790 790 790 790 790 790 789 789 789 789 788 788 788 787 786 786 785 784 784 783 783
774 776 777 779 780 782 783 783 784 786 787 788 788 790 791 792 793 793 794 794 794 793 793 793 793 792 792 792 792 792 793 793 793 793 792 792 792 792 792 792 792 792 791 791 791 791 791 790 790 790 790 790 790 790 790 789 789 789 789 788 788 788 787 787 786 785 785 784 783
774 775 777 778 780 781 782 783 784 785 786 787 788 789 790 792 793 793 794 794 794 794 793 793 793 793 792 792 792 792 792 792 792 792 792 792 792 792 792 792 792 791 791 791 791 791 790 790 790 790 790 790 790 790 790 790 789 789 788 788 788 788 787 787 786 786 785 785 784
774 775 777 778 779 781 782 783 783 785 786 787 788 789 790 791 792 793 793 794 794 794 793 793 793 793 792 792 792 792 792 792 792 792 792 792 792 792 792 792 792 791 791 791 791 791 790 790 790 790 790 790 790 790 790 789 789 789 788 788 788 787 787 787 786 786 785 785 784
773 775 776 778 779 780 781 782 783 784 785 787 788 789 790 791 792 793 793 793 794 794 793 793 793 793 792 792 792 792 792 792 792 792 792 792 792 792 792 792 791 791 791 791 791 790 790 790 790 790 790 790 790 789 789 789 789 789 788 788 788 787 787 786 786 785 785 784 784
773 774 776 777 778 779 781 782 783 784 785 786 788 789 790 791 792 793 793 793 793 793 793 793 793 793 792 792 792 792 792 792 792 792 792 792 792 792 792 791 791 791 791 791 790 790 790 790 790 790 789 789 789 789 789 789 788 788 788 788 787 787 786 786 786 785 784 784 783
773 774 775 777 778 779 780 781 783 783 785 786 787 788 789 791 792 792 793 793 793 793 793 793 793 793 792 792 792 792 792 792 792 792 792 792 792 792 791 791 791 791 791 790 790 790 790 790 789 789 789 789 789 789 789 788 788 788 788 787 787 786 786 786 785 785 784 783 783
772 773 775 776 777 778 780 781 782 783 784 785 787 788 789 790 791 792 793 793 793 793 793 793 793 792 792 792 792 792 791 791 791 791 791 791 791 791 791 791 791 791 790 790 790 790 790 789 789 789 789 789 789 788 788 788 788 788 787 787 786 786 785 785 785 784 783 783 782
772 773 774 775 777 778 779 780 781 783 784 785 786 788 789 790 791 792 792 793 793 793 793 793 792 792 792 792 792 791 791 791 791 791 791 791 791 791 791 791 791 790 790 790 790 790 789 789 789 789 789 788 788 788 788 788 787 787 787 786 786 785 785 784 784 783 783 782 782
771 772 773 775 776 777 778 780 781 782 783 785 786 787 788 789 790 791 792 792 792 792 792 792 792 792 792 792 791 791 791 791 791 791 791 791 791 791 791 791 790 790 790 790 790 790 789 789 789 788 788 788 788 788 787 787 787 786 786 786 785 785 784 783 783 783 782 782 781
770 771 773 774 775 777 778 779 780 782 783 784 785 787 788 789 790 791 791 792 792 792 792 792 792 792 792 791 791 791 791 791 791 791 791 791 791 791 790 790 790 790 790 790 790 789 789 789 788 788 788 788 788 787 787 786 786 786 785 785 784 784 783 783 782 782 781 781 780
770 771 772 773 775 776 777 779 780 782 783 784 785 786 787 788 789 790 791 791 791 792 792 792 792 791 791 791 791 791 790 790 790 790 790 790 790 790 790 790 790 790 790 790 789 789 789 789 788 788 788 788 787 787 786 786 785 785 784 784 783 783 783 782 782 781 780 780 779
769 771 772 773 774 775 777 778 780 781 783 784 785 786 787 788 789 790 790 791 791 791 791 791 791 791 791 791 790 790 790 790 790 790 790 790 790 790 790 790 790 790 790 790 789 789 789 788 788 788 788 787 787 786 786 785 785 784 783 783 782 782 781 781 780 780 779 779 778
768 770 771 773 774 775 776 778 779 781 782 783 784 785 786 788 788 789 790 790 791 791 791 791 791 790 790 790 790 790 790 790 790 790 790 790 790 790 790 790 790 789 789 789 789 789 789 788 788 788 788 787 787 786 785 785 784 783 783 782 781 781 780 779 779 779 778 778 778
768 769 771 772 773 775 776 778 779 780 782 783 784 785 786 787 788 789 789 790 790 790 790 790 790 790 790 790 789 789 789 789 789 789 789 789 789 789 789 789 789 789 789 789 788 788 788 788 788 788 787 787 786 785 785 784 784 783 782 781 780 779 778 778 778 778 777 777 777
768 769 770 771 773 774 776 778 779 780 781 783 783 784 786 787 788 788 789 790 790 790 790 790 790 790 789 789 789 789 789 789 789 789 789 789 789 789 789 788 788 788 788 788 788 788 788 788 788 788 787 786 786 785 784 784 783 783 782 781 780 779 778 777 776 776 776 776 775
767 768 770 771 773 774 776 777 778 780 781 782 783 784 785 786 787 788 789 789 790 790 790 790 789 789 789 789 789 789 789 789 789 789 788 788 788 788 788 788 788 788 788 788 788 788 788 787 787 787 787 786 786 785 784 783 783 782 781 780 779 778 777 776 775 775 774 774 774
767 768 769 771 773 774 776 777 778 779 780 782 783 783 784 786 787 788 788 789 789 789 789 789 789 789 789 788 788 788 788 788 788 788 788 788 788 788 788 787 787 787 787 787 787 787 787 787 786 786 786 786 785 785 784 783 782 781 780 780 779 778 777 776 775 774 773 773 772
766 768 769 771 773 774 775 777 778 779 780 781 782 783 784 785 786 787 788 789 789 789 789 789 789 789 788 788 788 788 788 788 788 788 788 788 788 787 787 787 786 786 786 786 786 786 786 785 785 785 785 785 785 784 784 783 782 781 780 779 778 778 777 776 775 774 773 772 771
766 768 769 771 773 774 775 776 778 778 779 781 782 783 783 785 786 787 788 788 788 789 789 789 789 789 788 788 788 788 788 788 788 788 788 788 787 787 786 786 785 785 785 785 785 785 784 784 784 784 784 784 784 784 783 783 782 781 780 779 778 777 776 775 774 773 773 772 771
766 768 769 771 772 774 775 776 777 778 779 780 781 782 783 784 785 786 787 788 788 788 789 789 789 788 788 788 788 788 788 788 788 787 787 787 786 786 785 785 784 784 784 784 784 783 783 783 783 783 783 783 783 783 782 782 781 780 779 778 777 777 776 775 774 773 772 771 770
766 768 769 771 772 773 775 776 777 778 779 780 781 782 783 784 785 786 787 788 788 788 788 788 788 788 788 788 787 787 787 787 787 787 786 786 786 785 784 784 784 783 783 783 783 783 783 783 783 783 783 783 782 782 781 781 780 779 778 778 777 776 775 774 773 773 772 771 770
766 768 770 771 772 773 774 776 777 778 778 779 780 782 783 783 784 785 786 787 788 788 788 788 788 788 787 787 787 787 786 786 786 786 786 785 785 784 784 783 783 783 782 782 782 782 782 782 782 782 781 781 781 780 780 779 778 778 777 776 775 774 774 773 773 772 771 770 769
767 768 770 771 772 773 774 775 776 777 778 779 780 781 782 783 784 785 786 787 787 788 788 788 787 787 787 786 786 786 786 785 785 785 785 784 784 783 783 782 782 782 782 781 781 781 781 781 781 780 780 780 779 779 778 778 777 776 776 775 774 773 773 772 771 770 769 769 768
767 768 770 771 772 773 774 775 776 777 778 779 780 781 782 783 784 785 786 787 787 787 787 787 787 786 786 786 785 785 785 784 784 784 784 783 783 783 782 782 781 781 781 780 780 780 780 780 779 779 779 779 778 778 777 776 776 775 774 773 773 772 771 770 770 769 768 768 767
767 768 770 771 772 773 774 775 776 777 778 779 780 781 782 783 784 785 786 786 786 786 786 786 786 786 785 785 785 784 784 784 783 783 783 783 782 782 781 781 780 780 780 779 779 779 779 779 778 778 778 778 777 776 775 775 774 773 773 772 771 770 769 769 768 767 767 766 765
767 768 770 771 772 773 773 774 775 776 777 778 779 780 781 783 784 785 785 786 786 786 785 785 785 785 784 784 784 783 783 783 782 782 782 781 781 781 780 779 779 778 778 778 778 778 778 778 778 777 777 776 775 775 774 773 773 772 771 770 769 769 768 767 767 766 765 764 763
768 769 770 771 772 773 773 774 775 776 777 778 779 780 781 783 783 784 785 785 785 785 784 784 784 784 783 783 783 782 782 782 781 781 780 780 780 779 779 778 778 777 777 777 777 777 777 777 776 776 776 775 774 773 773 772 771 771 770 769 768 767 767 766 765 764 763 763 762
768 769 770 771 772 772 773 774 775 776 777 778 779 780 782 783 783 783 784 784 784 783 783 783 783 783 782 782 782 781 781 780 780 780 779 779 779 778 778 777 777 776 776 776 776 776 776 775 775 775 774 774 773 772 772 771 770 769 768 768 767 766 765 764 763 763 761 761 760
768 769 770 771 772 772 773 774 775 776 777 778 779 780 781 782 782 783 783 783 783 783 782 782 782 782 781 781 780 780 779 779 779 778 778 778 778 777 777 776 776 775 775 775 775 775 774 774 774 773 773 773 772 771 771 770 769 768 767 766 765 764 763 762 762 761 760 759 758
768 769 770 771 772 773 773 774 775 776 777 778 779 780 781 781 781 782 782 782 782 782 781 781 781 780 780 780 779 779 778 778 777 777 777 777 776 776 776 775 774 774 773 773 773 773 773 773 773 772 772 771 771 770 769 769 768 767 766 765 764 763 762 760 760 759 758 757 756